When you browse on this site, cookies collect data to enhance your experience and personalize the content and advertising you see.
Visit our Privacy Policy to learn more. By continuing to use the site, you agree to this use of cookies and data.

Hourly Weather Krugloe

Today, 8 August, Saturday

Time Temperature Precipitation Wind Pressure Humidity
00:00 +15°C° 0 mm 1 mps 752 mmHg 91%
01:00 +14°C° 0 mm 1 mps 752 mmHg 92%
02:00 +14°C° 0 mm 1 mps 752 mmHg 95%
03:00 +14°C° 0 mm 1 mps 752 mmHg 95%
04:00 +15°C° 0 mm 1 mps 752 mmHg 95%
05:00 +15°C° 0 mm 1 mps 752 mmHg 95%
06:00 +16°C° 0 mm 2 mps 752 mmHg 89%
07:00 +18°C° 0 mm 2 mps 752 mmHg 84%
08:00 +20°C° 0 mm 2 mps 752 mmHg 77%
09:00 +21°C° 0.2 mm 2 mps 752 mmHg 73%
10:00 +22°C° 0.2 mm 3 mps 751 mmHg 69%
11:00 +24°C° 0.2 mm 3 mps 751 mmHg 65%
12:00 +25°C° 0.1 mm 3 mps 751 mmHg 62%
13:00 +25°C° 0.1 mm 3 mps 750 mmHg 60%
14:00 +26°C° 0.1 mm 3 mps 750 mmHg 57%
15:00 +25°C° 0.1 mm 2 mps 749 mmHg 62%
16:00 +25°C° 0.1 mm 2 mps 749 mmHg 67%
17:00 +24°C° 0.1 mm 2 mps 749 mmHg 71%
18:00 +23°C° 0 mm 2 mps 749 mmHg 77%
19:00 +21°C° 0 mm 1 mps 748 mmHg 83%
20:00 +19°C° 0 mm 1 mps 748 mmHg 89%
21:00 +19°C° 0 mm 1 mps 748 mmHg 91%
22:00 +18°C° 0 mm 1 mps 748 mmHg 93%
23:00 +16°C° 0 mm 1 mps 748 mmHg 95%

Tomorrow, 9 August, Sunday

Time Temperature Precipitation Wind Pressure Humidity
00:00 +16°C° 0 mm 2 mps 748 mmHg 95%
01:00 +16°C° 0 mm 2 mps 748 mmHg 96%
02:00 +15°C° 0 mm 2 mps 748 mmHg 96%
03:00 +15°C° 0 mm 2 mps 748 mmHg 96%
04:00 +15°C° 0 mm 2 mps 747 mmHg 95%
05:00 +15°C° 0 mm 2 mps 747 mmHg 95%
06:00 +17°C° 0 mm 2 mps 747 mmHg 88%
07:00 +18°C° 0 mm 2 mps 747 mmHg 80%
08:00 +20°C° 0 mm 2 mps 747 mmHg 73%
09:00 +23°C° 0 mm 2 mps 747 mmHg 68%
10:00 +24°C° 0 mm 2 mps 747 mmHg 63%
11:00 +25°C° 0 mm 2 mps 747 mmHg 59%
12:00 +25°C° 0.4 mm 2 mps 747 mmHg 65%
13:00 +24°C° 0.4 mm 2 mps 746 mmHg 72%
14:00 +24°C° 0.4 mm 2 mps 746 mmHg 79%
15:00 +23°C° 0.7 mm 2 mps 746 mmHg 80%
16:00 +23°C° 0.7 mm 2 mps 746 mmHg 81%
17:00 +23°C° 0.7 mm 1 mps 746 mmHg 82%
18:00 +22°C° 0.1 mm 1 mps 746 mmHg 85%
19:00 +20°C° 0.1 mm 1 mps 746 mmHg 89%
20:00 +19°C° 0.1 mm 1 mps 746 mmHg 93%
21:00 +18°C° 0 mm 1 mps 746 mmHg 94%
22:00 +18°C° 0 mm 1 mps 746 mmHg 94%
23:00 +15°C° 0 mm 0 mps 746 mmHg 94%

Day after tomorrow, 10 August, Monday

Time Temperature Precipitation Wind Pressure Humidity
00:00 +15°C° 0 mm 0 mps 746 mmHg 95%
01:00 +14°C° 0 mm 0 mps 746 mmHg 95%
02:00 +14°C° 0 mm 0 mps 746 mmHg 95%
03:00 +14°C° 0 mm 0 mps 746 mmHg 95%
04:00 +15°C° 0 mm 1 mps 745 mmHg 96%
05:00 +15°C° 0 mm 1 mps 745 mmHg 96%
06:00 +18°C° 0 mm 1 mps 745 mmHg 92%
07:00 +20°C° 0 mm 1 mps 745 mmHg 87%
08:00 +21°C° 0 mm 1 mps 745 mmHg 83%
09:00 +23°C° 0.3 mm 1 mps 745 mmHg 75%
10:00 +24°C° 0.3 mm 2 mps 745 mmHg 67%
11:00 +26°C° 0.3 mm 2 mps 745 mmHg 59%
12:00 +26°C° 0.4 mm 2 mps 744 mmHg 62%
13:00 +26°C° 0.4 mm 2 mps 744 mmHg 65%
14:00 +25°C° 0.4 mm 3 mps 744 mmHg 68%
15:00 +24°C° 0.9 mm 3 mps 743 mmHg 74%
16:00 +23°C° 0.9 mm 2 mps 743 mmHg 80%
17:00 +21°C° 0.9 mm 2 mps 743 mmHg 86%
18:00 +20°C° 0.1 mm 2 mps 743 mmHg 88%
19:00 +19°C° 0.1 mm 2 mps 743 mmHg 89%
20:00 +18°C° 0.1 mm 2 mps 743 mmHg 90%
21:00 +16°C° 0 mm 3 mps 743 mmHg 91%
22:00 +14°C° 0 mm 3 mps 744 mmHg 92%
23:00 +12°C° 0 mm 3 mps 744 mmHg 93%

11 August, Tuesday

Time Temperature Precipitation Wind Pressure Humidity
00:00 +12°C° 0 mm 3 mps 744 mmHg 95%
01:00 +11°C° 0 mm 3 mps 744 mmHg 96%
02:00 +10°C° 0 mm 3 mps 744 mmHg 97%
03:00 +10°C° 0 mm 3 mps 744 mmHg 95%
04:00 +10°C° 0 mm 2 mps 744 mmHg 93%
05:00 +10°C° 0 mm 2 mps 744 mmHg 91%
06:00 +11°C° 0 mm 3 mps 744 mmHg 87%
07:00 +12°C° 0 mm 3 mps 744 mmHg 84%
08:00 +13°C° 0 mm 3 mps 744 mmHg 81%
09:00 +14°C° 0.1 mm 4 mps 744 mmHg 80%
10:00 +14°C° 0.1 mm 4 mps 745 mmHg 78%
11:00 +15°C° 0.1 mm 4 mps 745 mmHg 77%
12:00 +15°C° 0.2 mm 5 mps 745 mmHg 74%
13:00 +16°C° 0.2 mm 5 mps 745 mmHg 71%
14:00 +16°C° 0.2 mm 5 mps 745 mmHg 68%
15:00 +15°C° 0.1 mm 5 mps 745 mmHg 71%
16:00 +15°C° 0.1 mm 5 mps 745 mmHg 73%
17:00 +14°C° 0.1 mm 5 mps 745 mmHg 76%
18:00 +13°C° 0 mm 4 mps 745 mmHg 77%
19:00 +13°C° 0 mm 4 mps 745 mmHg 78%
20:00 +12°C° 0 mm 4 mps 745 mmHg 80%
21:00 +12°C° 0 mm 3 mps 745 mmHg 83%
22:00 +11°C° 0 mm 3 mps 745 mmHg 85%
23:00 +10°C° 0 mm 3 mps 746 mmHg 88%

12 August, Wednesday

Time Temperature Precipitation Wind Pressure Humidity
00:00 +10°C° 0 mm 3 mps 746 mmHg 88%
01:00 +11°C° 0 mm 3 mps 746 mmHg 88%
02:00 +11°C° 0 mm 3 mps 746 mmHg 88%
03:00 +10°C° 0 mm 3 mps 746 mmHg 90%
04:00 +9°C° 0 mm 3 mps 746 mmHg 91%
05:00 +8°C° 0 mm 3 mps 746 mmHg 93%
06:00 +10°C° 0 mm 3 mps 746 mmHg 84%
07:00 +11°C° 0 mm 4 mps 747 mmHg 74%
08:00 +13°C° 0 mm 4 mps 747 mmHg 65%
09:00 +13°C° 0 mm 4 mps 747 mmHg 61%
10:00 +14°C° 0 mm 4 mps 747 mmHg 57%
11:00 +15°C° 0 mm 4 mps 747 mmHg 53%
12:00 +15°C° 0 mm 4 mps 747 mmHg 53%
13:00 +15°C° 0 mm 4 mps 747 mmHg 52%
14:00 +16°C° 0 mm 3 mps 747 mmHg 51%
15:00 +16°C° 0 mm 3 mps 747 mmHg 55%
16:00 +16°C° 0 mm 2 mps 747 mmHg 59%
17:00 +16°C° 0 mm 2 mps 748 mmHg 62%
18:00 +14°C° 0 mm 2 mps 748 mmHg 68%
19:00 +13°C° 0 mm 2 mps 748 mmHg 73%
20:00 +12°C° 0 mm 2 mps 748 mmHg 79%
21:00 +10°C° 0 mm 2 mps 748 mmHg 82%
22:00 +10°C° 0 mm 2 mps 748 mmHg 85%
23:00 +10°C° 0 mm 1 mps 748 mmHg 88%

13 August, Thursday

Time Temperature Precipitation Wind Pressure Humidity
00:00 +10°C° 0 mm 1 mps 748 mmHg 89%
01:00 +9°C° 0 mm 1 mps 748 mmHg 90%
02:00 +8°C° 0 mm 2 mps 748 mmHg 92%
03:00 +9°C° 0 mm 1 mps 748 mmHg 91%
04:00 +9°C° 0 mm 1 mps 748 mmHg 90%
05:00 +9°C° 0 mm 1 mps 748 mmHg 89%
06:00 +10°C° 0 mm 1 mps 748 mmHg 83%
07:00 +12°C° 0 mm 1 mps 748 mmHg 76%
08:00 +14°C° 0 mm 1 mps 747 mmHg 70%
09:00 +15°C° 0 mm 2 mps 747 mmHg 65%
10:00 +16°C° 0 mm 2 mps 747 mmHg 61%
11:00 +17°C° 0 mm 2 mps 747 mmHg 57%
12:00 +17°C° 0.1 mm 2 mps 747 mmHg 58%
13:00 +17°C° 0.1 mm 2 mps 747 mmHg 58%
14:00 +18°C° 0.1 mm 2 mps 746 mmHg 59%
15:00 +17°C° 0.2 mm 2 mps 746 mmHg 66%
16:00 +16°C° 0.2 mm 2 mps 746 mmHg 73%
17:00 +15°C° 0.2 mm 2 mps 746 mmHg 80%
18:00 +14°C° 0.1 mm 1 mps 746 mmHg 84%
19:00 +13°C° 0.1 mm 1 mps 746 mmHg 89%
20:00 +12°C° 0.1 mm 1 mps 746 mmHg 93%
21:00 +12°C° 0 mm 1 mps 746 mmHg 94%
22:00 +11°C° 0 mm 1 mps 746 mmHg 95%
23:00 +11°C° 0 mm 1 mps 746 mmHg 95%
Show more